Location: Unspecified
(0.0000°N, 0.0000°E)
Time: 15:45:22
(UTC+00:00)

Vanguard 2 Rocket - Pass Details

Date: 16 December 2017
Orbit: 553 x 3327 km, 32.9° (Epoch: 16 July)

Event Time Altitude Azimuth Distance (km) Brightness Sun altitude
Rises 17:40:21 0° 285° (WNW) 3,952 11.1 3.6°
Reaches altitude 10° 17:43:45 10° 303° (WNW) 3,384 10.3 2.8°
Maximum altitude 17:49:42 19° 346° (NNW) 3,380 9.8 1.4°
Drops below altitude 10° 17:58:00 10° 25° (NNE) 4,904 10.2 -0.5°
Sets 18:04:43 0° 41° (NE) 6,476 10.7 -2.0°
